Showing default

KUIPER-00299, 68864

Orbit data source: Space-Track

KUIPER-00299, 68864 is an American payload satellite in LEO that was launched on Tue, 28 Apr 2026 UTC launched from the Air Force Eastern Test Range (AFETR). Payload-class satellites include a variety of spacecraft equipped with specific instruments for various scientific and technological missions. These include communications satellites like Starlink; space stations such as the ISS; scientific satellites like the Hubble; Earth observation satellites from companies like Planet Labs, Umbra, and HawkEye 360; GPS; miniature CubeSats for education and research; and military/defense satellites.

Loading next visibility...
Identifier
68864, 2026-095A
Orbit
LEO
Country
Flag of USUS
Related business
None
Manufacturer
Unknown
Mission
Operational spacecraft
Bus & Motor
Unknown
Mass
Unknown
Launch date (UTC)
2026-04-28 (4 days ago)
Launch vehicle
Unknown
Launch site
Air Force Eastern Test Range (AFETR)
Object type
Payload
Rocket body
Debris
Shape & HBR
Unknown
Radar Cross Section
RCS unknown

Expand to show TLE details & history
Last TLE update: 7 hours ago

TLE from 7 hours ago
0 KUIPER-00299
1 68864U 26095A   26122.16670139 -.00002344  00000-0 -54314-4 0  9996
2 68864  51.8714 104.9432 0009241 130.8247  58.1016 15.36269790  1363
Epoch: 2026-05-02T04:00Z
TLE epoch observation values (Epoch: 2026-05-02T04:00:03.000Z)
Latitude
-7.20106°
Longitude
10.502°
Altitude
455.796 km
Speed
7.642 km/s
True Right ascension
19h 22m 24s
True Declination
-7° 09' 24"
Sunlit
Object was in daylight at epoch
Visualization orbit readout
Latitude
Unknown
Longitude
Unknown
Altitude
Unknown
Speed
Unknown
Apparent Right ascension
Unknown
Apparent Declination
Unknown
Sunlit
N/A
Visualization observer readout
Local Sidereal Time
18:38:38
Azimuth
Unknown
Elevation
Unknown
Doppler factor
Unknown
Orbital elements
Apogee altitude
463.935 km
Perigee altitude
451.302 km
Semi-major axis
6,835.755 km
Eccentricity
0.00092
Inclination
51.8714°
RAAN
104.9432°
Arg. of periapsis
130.8247°
True anomaly
58.19156°
Mean anomaly
58.1016°
Eccentric anomaly
58.14657°
Mean motion
3.84028 °/min
Orbital period
93.74 mins
BSTAR
-0.000054314
Loading maneuver chart data...
Computing Atmospheric mass density...
Loading historical data...
Loading historical data...
Loading historical data...
Loading historical data...
Loading historical data...
Loading historical data...
Loading historical data...

Documentation

Showing up to 5 results
|